171  
ASUS43 KEAX 191010  
RWREAX  
 
WEATHER ROUNDUP FOR EASTERN KANSAS AND NORTHWEST MISSOURI  
NATIONAL WEATHER SERVICE KANSAS CITY/PLEASANT HILL MO  
500 AM CDT SUN MAY 19 2019  
 
KSZ040-057-103>105-MOZ028-029-037-043-191100-   
..KANSAS CITY METROPOLITAN AREA
 
 
 
CITY SKY/WX TMP DP RH WIND PRES REMARKS
 
K.C. INTL DRIZZLE 58 56 93 W5 29.58R  
K.C. DOWNTOWN CLOUDY 58 54 86 SW10 29.58R  
LEES SUMMIT CLOUDY 57 53 86 SW14 29.61R  
OLATHE - IXD CLOUDY 56 52 86 SW7 29.61R  
OLATHE - OJC CLOUDY 55 53 93 SW6 29.60R  
LAWRENCE CLOUDY 56 53 90 W6 29.60R  
 

 
 
MOZ001>008-011>017-020>025-030>033-038>040-044>046-053-054-191100-   
..NORTHERN AND CENTRAL MISSOURI
 
 
 
CITY SKY/WX TMP DP RH WIND PRES REMARKS
 
ST. JOSEPH MOCLDY 57 57 100 SW6 29.59R  
MOSBY LGT RAIN 61 61 100 CALM 29.57R  
WARRENSBURG PTCLDY 59 57 94 S7 29.60R  
WHITEMAN AFB MOCLDY 59 59 100 S8 29.55R  
CLINTON NOT AVBL  
SEDALIA CLOUDY 57 57 100 S7 29.60S  
WARSAW NOT AVBL  
CHILLICOTHE N/A 62 61 96 S3 29.59S  
KIRKSVILLE CLOUDY 62 61 96 SW7 29.58F  
 

 
 
MOZ041-047>049-056>058-063>065-088>090-097-191100-   
..EASTERN AND SOUTHERN MISSOURI
 
 
 
CITY SKY/WX TMP DP RH WIND PRES REMARKS
 
ST. LOUIS INTL CLOUDY 65 61 87 S12 29.69S  
SPIRIT OF STL CLOUDY 65 62 90 S9 29.68R  
COLUMBIA CLOUDY 62 60 93 SE6 29.61F  
JEFFERSON CITY CLOUDY 64 60 87 SE5 29.61F  
ROLLA CLOUDY 62 59 90 SE9 29.66F  
OSAGE BEACH CLOUDY 61 60 97 S6 29.65R  
SPRINGFIELD CLOUDY 58 55 90 S10 29.69R  
BRANSON CLOUDY 57 55 94 SE8 29.72F  
JOPLIN PTCLDY 57 52 83 SW12 29.70R  
WEST PLAINS CLOUDY 63 61 93 S7 29.76R  
 

 
 
IAZ060-094-KSZ022-034>040-054-083-096-NEZ052-066-093-191100-    
..KANSAS...SOUTHEAST NEBRASKA AND IOWA
 
 
 
CITY SKY/WX TMP DP RH WIND PRES REMARKS
 
TOPEKA CLOUDY 57 55 93 W3 29.61R  
MANHATTAN RAIN 57 53 86 NW9G18 29.69R  
EMPORIA LGT RAIN 56 55 97 W17G29 29.65R  
CHANUTE CLEAR 56 52 86 SW9 29.69R  
WICHITA CLOUDY 57 51 80 NW10 29.75R  
OMAHA CLOUDY 58 52 80 NW12 29.64R  
LINCOLN CLOUDY 55 46 71 NW10 29.69R  
FALLS CITY CLOUDY 59 56 89 NW14G21 29.61R  
LAMONI LGT RAIN 57 55 93 N9 29.56F  
DES MOINES CLOUDY 57 55 93 SW8 29.55R  
 

 
 
 
 
CLICK HERE TO GO TO PREVIOUS BULLETINS.

The Nexlab MO Page
The Nexlab KS Page Main Text Page